When you browse on this site, cookies collect data to enhance your experience and personalize the content and advertising you see.
Visit our Privacy Policy to learn more. By continuing to use the site, you agree to this use of cookies and data.
  • In Austria
  • List of Countries
  • For 7 days
  • Water Temperature
  • Weather Map
  • News
  • Weather Widgets
  • user-avatar
    Login

    Hourly Weather San Miguel Vindho

    Today, 19 January, Sunday

    Time Temperature Precipitation Wind Pressure Humidity
    00:00 +14°C° 0.4 mm 1 mps 595 mmHg 86%
    01:00 +14°C° 0.4 mm 1 mps 595 mmHg 88%
    02:00 +14°C° 0.4 mm 1 mps 595 mmHg 89%
    03:00 +14°C° 0.1 mm 1 mps 595 mmHg 90%
    04:00 +14°C° 0.1 mm 1 mps 595 mmHg 91%
    05:00 +14°C° 0.1 mm 1 mps 595 mmHg 91%
    06:00 +14°C° 0.1 mm 2 mps 596 mmHg 89%
    07:00 +14°C° 0.1 mm 2 mps 596 mmHg 86%
    08:00 +15°C° 0.1 mm 2 mps 597 mmHg 84%
    09:00 +16°C° 0.2 mm 2 mps 597 mmHg 77%
    10:00 +17°C° 0.2 mm 3 mps 598 mmHg 71%
    11:00 +18°C° 0.2 mm 3 mps 598 mmHg 65%
    12:00 +18°C° 0.4 mm 4 mps 597 mmHg 66%
    13:00 +17°C° 0.4 mm 4 mps 597 mmHg 67%
    14:00 +16°C° 0.4 mm 5 mps 596 mmHg 68%
    15:00 +15°C° 0.2 mm 5 mps 596 mmHg 71%
    16:00 +14°C° 0.2 mm 4 mps 596 mmHg 75%
    17:00 +13°C° 0.2 mm 4 mps 596 mmHg 78%
    18:00 +12°C° 0.9 mm 4 mps 596 mmHg 82%
    19:00 +12°C° 0.9 mm 3 mps 596 mmHg 86%
    20:00 +11°C° 0.9 mm 3 mps 596 mmHg 90%
    21:00 +11°C° 0.4 mm 3 mps 596 mmHg 89%
    22:00 +12°C° 0.4 mm 2 mps 597 mmHg 89%
    23:00 +12°C° 0.4 mm 2 mps 597 mmHg 89%

    Tomorrow, 20 January, Monday

    Time Temperature Precipitation Wind Pressure Humidity
    00:00 +12°C° 0.3 mm 2 mps 596 mmHg 89%
    01:00 +12°C° 0.3 mm 2 mps 596 mmHg 90%
    02:00 +12°C° 0.3 mm 2 mps 596 mmHg 90%
    03:00 +12°C° 0.9 mm 2 mps 596 mmHg 90%
    04:00 +11°C° 0.9 mm 1 mps 596 mmHg 91%
    05:00 +11°C° 0.9 mm 1 mps 596 mmHg 91%
    06:00 +11°C° 1 mm 1 mps 597 mmHg 90%
    07:00 +12°C° 1 mm 1 mps 597 mmHg 89%
    08:00 +12°C° 1 mm 1 mps 598 mmHg 88%
    09:00 +13°C° 0.2 mm 1 mps 598 mmHg 84%
    10:00 +13°C° 0.2 mm 2 mps 598 mmHg 80%
    11:00 +14°C° 0.2 mm 2 mps 598 mmHg 76%
    12:00 +13°C° 0.1 mm 3 mps 598 mmHg 74%
    13:00 +14°C° 0.1 mm 3 mps 597 mmHg 71%
    14:00 +14°C° 0.1 mm 4 mps 597 mmHg 69%
    15:00 +13°C° 0 mm 3 mps 597 mmHg 71%
    16:00 +13°C° 0 mm 3 mps 596 mmHg 74%
    17:00 +12°C° 0 mm 3 mps 596 mmHg 76%
    18:00 +11°C° 0 mm 3 mps 596 mmHg 80%
    19:00 +12°C° 0 mm 2 mps 596 mmHg 84%
    20:00 +10°C° 0 mm 2 mps 596 mmHg 88%
    21:00 +10°C° 0 mm 2 mps 596 mmHg 88%
    22:00 +10°C° 0 mm 1 mps 596 mmHg 88%
    23:00 +10°C° 0 mm 1 mps 596 mmHg 89%

    Day after tomorrow, 21 January, Tuesday

    Time Temperature Precipitation Wind Pressure Humidity
    00:00 +10°C° 0 mm 1 mps 596 mmHg 88%
    01:00 +10°C° 0 mm 1 mps 596 mmHg 88%
    02:00 +10°C° 0 mm 1 mps 595 mmHg 88%
    03:00 +10°C° 0 mm 1 mps 595 mmHg 87%
    04:00 +10°C° 0 mm 1 mps 595 mmHg 86%
    05:00 +9°C° 0 mm 0 mps 595 mmHg 85%
    06:00 +11°C° 0 mm 1 mps 596 mmHg 82%
    07:00 +11°C° 0 mm 1 mps 596 mmHg 78%
    08:00 +12°C° 0 mm 1 mps 596 mmHg 75%
    09:00 +14°C° 0 mm 1 mps 597 mmHg 67%
    10:00 +15°C° 0 mm 0 mps 597 mmHg 59%
    11:00 +17°C° 0 mm 0 mps 598 mmHg 52%
    12:00 +20°C° 0 mm 1 mps 597 mmHg 48%
    13:00 +20°C° 0 mm 2 mps 597 mmHg 43%
    14:00 +21°C° 0 mm 2 mps 597 mmHg 39%
    15:00 +20°C° 0 mm 3 mps 596 mmHg 45%
    16:00 +19°C° 0 mm 3 mps 596 mmHg 51%
    17:00 +17°C° 0 mm 4 mps 595 mmHg 57%
    18:00 +16°C° 0 mm 3 mps 595 mmHg 66%
    19:00 +15°C° 0 mm 2 mps 595 mmHg 74%
    20:00 +13°C° 0 mm 1 mps 595 mmHg 82%
    21:00 +13°C° 0 mm 1 mps 594 mmHg 83%
    22:00 +13°C° 0 mm 1 mps 594 mmHg 83%
    23:00 +13°C° 0 mm 1 mps 594 mmHg 84%

    22 January, Wednesday

    Time Temperature Precipitation Wind Pressure Humidity
    00:00 +12°C° 0 mm 1 mps 593 mmHg 83%
    01:00 +12°C° 0 mm 1 mps 593 mmHg 82%
    02:00 +12°C° 0 mm 1 mps 593 mmHg 82%
    03:00 +12°C° 0 mm 1 mps 592 mmHg 80%
    04:00 +12°C° 0 mm 2 mps 592 mmHg 79%
    05:00 +12°C° 0 mm 2 mps 592 mmHg 78%
    06:00 +13°C° 0 mm 2 mps 593 mmHg 73%
    07:00 +14°C° 0 mm 2 mps 593 mmHg 67%
    08:00 +15°C° 0 mm 2 mps 594 mmHg 62%
    09:00 +17°C° 0 mm 2 mps 595 mmHg 54%
    10:00 +19°C° 0 mm 2 mps 595 mmHg 46%
    11:00 +21°C° 0 mm 2 mps 595 mmHg 38%
    12:00 +22°C° 0 mm 3 mps 595 mmHg 36%
    13:00 +24°C° 0 mm 3 mps 594 mmHg 34%
    14:00 +25°C° 0 mm 4 mps 594 mmHg 32%
    15:00 +22°C° 0 mm 4 mps 594 mmHg 35%
    16:00 +21°C° 0 mm 4 mps 593 mmHg 39%
    17:00 +20°C° 0 mm 4 mps 593 mmHg 43%
    18:00 +19°C° 0 mm 3 mps 593 mmHg 48%
    19:00 +17°C° 0 mm 3 mps 593 mmHg 53%
    20:00 +16°C° 0 mm 2 mps 593 mmHg 58%
    21:00 +15°C° 0 mm 2 mps 593 mmHg 59%
    22:00 +14°C° 0 mm 1 mps 592 mmHg 61%
    23:00 +14°C° 0 mm 1 mps 592 mmHg 62%

    23 January, Thursday

    Time Temperature Precipitation Wind Pressure Humidity
    00:00 +14°C° 0 mm 1 mps 592 mmHg 63%
    01:00 +13°C° 0 mm 1 mps 591 mmHg 64%
    02:00 +13°C° 0 mm 1 mps 591 mmHg 64%
    03:00 +13°C° 0 mm 1 mps 591 mmHg 66%
    04:00 +12°C° 0 mm 1 mps 591 mmHg 68%
    05:00 +12°C° 0 mm 1 mps 591 mmHg 70%
    06:00 +13°C° 0 mm 1 mps 591 mmHg 65%
    07:00 +14°C° 0 mm 1 mps 592 mmHg 61%
    08:00 +14°C° 0 mm 1 mps 593 mmHg 56%
    09:00 +16°C° 0 mm 2 mps 594 mmHg 49%
    10:00 +18°C° 0 mm 2 mps 594 mmHg 43%
    11:00 +20°C° 0 mm 2 mps 595 mmHg 36%
    12:00 +20°C° 0 mm 3 mps 594 mmHg 33%
    13:00 +21°C° 0 mm 4 mps 594 mmHg 31%
    14:00 +21°C° 0 mm 5 mps 594 mmHg 28%
    15:00 +19°C° 0 mm 5 mps 593 mmHg 36%
    16:00 +16°C° 0 mm 5 mps 592 mmHg 45%
    17:00 +15°C° 0 mm 5 mps 592 mmHg 53%
    18:00 +14°C° 0 mm 4 mps 592 mmHg 59%
    19:00 +13°C° 0 mm 3 mps 592 mmHg 65%
    20:00 +13°C° 0 mm 2 mps 592 mmHg 70%
    21:00 +13°C° 0 mm 2 mps 591 mmHg 70%
    22:00 +13°C° 0 mm 1 mps 591 mmHg 69%
    23:00 +13°C° 0 mm 1 mps 591 mmHg 68%

    24 January, Friday

    Time Temperature Precipitation Wind Pressure Humidity
    00:00 +13°C° 0 mm 1 mps 591 mmHg 70%
    01:00 +12°C° 0 mm 1 mps 590 mmHg 72%
    02:00 +11°C° 0 mm 0 mps 590 mmHg 74%
    03:00 +11°C° 0 mm 1 mps 590 mmHg 75%
    04:00 +11°C° 0 mm 1 mps 590 mmHg 76%
    05:00 +11°C° 0 mm 1 mps 590 mmHg 77%
    06:00 +12°C° 0 mm 1 mps 591 mmHg 71%
    07:00 +13°C° 0 mm 1 mps 592 mmHg 65%
    08:00 +14°C° 0 mm 1 mps 593 mmHg 59%
    09:00 +16°C° 0 mm 1 mps 593 mmHg 51%
    10:00 +19°C° 0 mm 1 mps 594 mmHg 43%
    11:00 +21°C° 0 mm 1 mps 594 mmHg 34%
    12:00 +21°C° 0 mm 1 mps 594 mmHg 31%
    13:00 +22°C° 0 mm 1 mps 594 mmHg 28%
    14:00 +23°C° 0 mm 1 mps 594 mmHg 25%
    15:00 +21°C° 0 mm 2 mps 593 mmHg 28%
    16:00 +21°C° 0 mm 2 mps 593 mmHg 31%
    17:00 +20°C° 0 mm 2 mps 593 mmHg 34%
    18:00 +18°C° 0 mm 2 mps 593 mmHg 46%
    19:00 +17°C° 0 mm 2 mps 593 mmHg 58%
    20:00 +15°C° 0 mm 2 mps 593 mmHg 70%
    21:00 +14°C° 0 mm 2 mps 593 mmHg 75%
    22:00 +14°C° 0 mm 2 mps 593 mmHg 80%
    23:00 +13°C° 0 mm 1 mps 593 mmHg 85%
    Show more